Location: Alando
(42.3054°N, 9.2895°E)
Time: 13:12:23
(UTC+00:00)

Cosmos 1825 Rocket - Pass Details

Date: 09 April 2020
Orbit: 603 x 631 km, 82.5° (Epoch: 26 May)

Event Time Altitude Azimuth Distance (km) Brightness Sun altitude
Rises 19:04:15 0° 347° (NNW) 2,898 7.6 -12.5°
Reaches altitude 10° 19:06:32 10° 342° (NNW) 1,983 6.8 -12.9°
Maximum altitude 19:10:47 53° 267° (W) 758 4.4 -13.6°
Drops below altitude 10° 19:15:00 10° 190° (S) 1,952 6.0 -14.3°
Sets 19:17:13 0° 186° (S) 2,848 6.8 -14.7°
